Location: São Paulo
(23.5507°S, 46.6334°W)
Time: 09:36:07
(UTC-03:00)

Explorer 7 - Pass Details

Date: 24 February 2026
Orbit: 430 x 541 km, 50.2° (Epoch: 11 March)

Event Time Altitude Azimuth Distance (km) Brightness Sun altitude
Rises 00:32:55 0° 273° (W) 2,706 - -56.8°
Reaches altitude 10° 00:36:22 10° 243° (WSW) 1,818 - -56.7°
Maximum altitude 00:38:10 13° 217° (SW) 1,661 - -56.7°
Drops below altitude 10° 00:39:59 10° 191° (S) 1,815 - -56.6°
Sets 00:43:26 0° 161° (SSE) 2,696 - -56.5°
